Location: ??????????
(41.2770°N, 22.7864°E)
Time: 19:44:48
(UTC+00:00)

Daily predictions for brighter satellites

Satellite Brightness Start Highest point End
(mag) Time Altitude Azimuth Time Altitude Azimuth Time Altitude Azimuth
USA 229 DEB 4.4 17:48:57 10° NW 17:56:17 65° WSW 18:03:58 10° SSE
USA 229 4.4 17:49:02 10° NW 17:56:23 66° WSW 18:04:04 10° SSE
Cosmos 1814 Rocket 4.1 17:53:27 10° NNW 17:58:40 66° ENE 18:03:47 10° SSE
FALCON 9 DEB 4.1 17:57:23 10° NW 18:00:10 31° NNE 18:02:56 10° E
SL-4 R/B 3.0 18:00:49 10° NW 18:05:01 45° NNE 18:09:27 10° ESE
Cosmos 540 Rocket 4.0 18:01:43 10° NNW 18:06:46 62° WSW 18:11:46 10° S
X-37B 1.8 18:07:53 10° W 18:10:57 42° N 18:14:01 10° ENE
CSL-04 Rocket 4.3 18:06:32 10° S 18:11:43 59° WSW 18:17:00 10° NNW
Cosmos 1844 4.3 18:07:56 10° S 18:13:06 36° ESE 18:18:16 10° NE
Cosmos 968 Rocket 3.7 18:10:49 10° S 18:15:52 51° ESE 18:20:57 10° NNE
Resurs 1-3 4.1 18:14:03 10° SE 18:18:11 43° ENE 18:22:20 10° N
CZ-4 R/B 4.3 18:15:44 10° SW 18:18:20 16° W 18:20:56 10° NW
ATLAS 5 CENTAUR R/B 3.8 18:13:59 10° NNW 18:18:27 24° NE 18:23:30 10° E
Cosmos 1743 Rocket 3.7 18:16:41 10° N 18:20:57 55° E 18:25:13 10° SSE
ERS-2 3.0 18:18:02 10° N 18:21:36 54° WNW 18:25:07 10° SSW
Cosmos 1486 Rocket 4.3 18:18:00 10° S 18:23:05 48° ESE 18:28:13 10° NNE
S3M 4.4 18:19:19 10° SSE 18:25:17 43° E 18:31:14 10° NNE
Cosmos 2221 3.4 18:28:15 10° SSW 18:32:26 54° W 18:36:42 10° N
Cosmos 1500 Rocket 3.5 18:28:34 10° N 18:32:58 78° E 18:37:19 10° S
TIMED 4.5 18:33:54 10° NNW 18:38:17 75° ENE 18:42:02 14° SSE
USA 186 3.6 18:37:50 10° SSW 18:40:00 22° W 18:42:05 10° NW
Cosmos 1862 4.4 18:37:19 10° NNW 18:41:10 46° W 18:45:01 10° SSW
Cosmos 1553 Rocket 4.0 18:37:46 10° S 18:43:53 88° E 18:50:07 10° N
Cosmos 1933 3.8 18:41:27 13° SSE 18:44:41 39° E 18:48:28 10° NNE
FALCON 9 DEB 2.8 18:43:24 10° NW 18:46:26 77° SW 18:48:00 25° SE
Cosmos 1242 Rocket 3.1 18:50:09 21° SSE 18:52:05 37° E 18:55:24 10° NNE
FALCON 9 DEB 3.0 18:49:42 10° WNW 18:52:42 60° SW 18:54:03 28° SSE
OBJECT-B 2.7 18:50:33 10° SSW 18:53:25 29° W 18:56:19 10° NW
Cosmos 1437 Rocket 2.8 18:50:44 10° SSW 18:54:33 78° W 18:58:29 10° N
Resurs 01 Rocket 1.7 18:52:08 18° SSE 18:55:20 63° ENE 18:59:45 10° N
DELTA 2 R/B (1) 3.6 18:51:44 10° W 18:57:17 71° S 19:01:05 20° ESE
CZ-4C R/B 4.2 18:53:49 10° NNW 18:59:56 30° NE 19:06:07 12° E
Meteor 1-20 Rocket 4.3 18:55:47 10° N 19:01:21 61° ENE 19:05:02 21° SSE
FALCON 9 DEB 2.9 18:58:25 10° WNW 19:01:27 67° SW 19:02:29 36° SSE
Intercosmos 24 3.6 18:57:58 10° S 19:02:03 79° E 19:05:36 10° N
Sich 1 3.0 18:59:08 10° N 19:03:27 67° E 19:06:02 23° SSE
Cosmos 1782 3.3 19:07:44 30° SE 19:09:00 40° E 19:12:45 10° NNE
ERS-1 Rocket 4.3 19:10:53 21° E 19:12:41 25° ENE 19:16:46 10° NNE
Cosmos 1503 Rocket 3.9 19:08:42 10° SSW 19:13:51 78° ESE 19:19:03 10° NNE
SPOT 5 4.2 19:13:39 22° E 19:15:26 27° ENE 19:19:43 10° N
Cosmos 1151 Rocket 3.0 19:21:15 32° SSE 19:23:06 62° E 19:27:26 10° NNE
Cosmos 2278 Rocket 3.0 19:23:58 28° ESE 19:24:30 29° ESE 19:29:17 10° NE
Terra 3.3 19:23:30 20° E 19:24:36 22° ENE 19:28:13 10° NNE
Ariane Rocket 4.4 19:22:51 10° SSW 19:27:26 34° W 19:32:02 10° NNW
USA 290 2.1 19:26:35 10° NNW 19:29:51 84° WSW 19:30:10 69° S
Cosmos 1602 3.6 19:26:25 10° N 19:30:17 74° E 19:31:09 51° SSE
Meteor 1-25 Rocket 4.3 19:25:11 10° NNW 19:31:02 80° W 19:34:41 24° S
FALCON 9 DEB 4.4 19:33:14 10° WNW 19:35:41 25° SW 19:35:41 25° SW
IRIS 4.2 19:33:22 10° W 19:35:32 64° W 19:35:32 64° W
CZ-2C R/B 3.8 19:31:26 10° N 19:35:54 73° WNW 19:39:20 17° SSW
Cosmos 1844 Rocket 4.1 19:31:46 10° SW 19:36:55 38° WNW 19:42:08 10° N
SPOT 1/Viking Rocket 3.5 19:36:09 34° SSE 19:38:30 89° E 19:43:44 10° NNW
MetOp-B 4.3 19:36:53 28° S 19:39:48 72° WSW 19:45:10 10° NNW
Cosmos 1515 Rocket 4.0 19:40:29 41° E 19:40:35 41° E 19:44:45 10° NNE
Cosmos 2084 3.2 19:41:37 49° S 19:42:34 68° ESE 19:46:46 10° NE
ARIANE 5 R/B 2.5 19:43:07 53° SE 19:43:58 69° ENE 19:48:18 10° N
SL-4 R/B 3.0 19:40:28 10° WNW 19:44:40 40° SW 19:45:35 35° SSW
Cosmos 1354 Rocket 4.3 19:39:57 10° SSW 19:45:08 65° WNW 19:50:22 10° NNE
X-37B 1.3 19:44:47 10° WNW 19:47:53 50° N 19:47:53 50° N
JB-3 4.1 19:47:59 10° NNE 19:51:55 80° ESE 19:52:04 78° SE
Cosmos 1437 4.0 19:54:17 32° N 19:54:17 32° N 19:56:00 10° N
Cosmos 1633 Rocket 3.2 19:48:49 10° NNW 19:53:12 71° W 19:54:17 48° SSW
Milstar 3 4.0 19:42:54 10° SW 19:54:26 34° S 19:56:05 32° SSE
Cosmos 2184 Rocket 4.5 19:49:12 10° N 19:55:07 43° ENE 19:56:32 38° ESE
Cosmos 1812 2.9 19:56:30 58° NE 19:56:30 58° NE 19:59:53 10° NNE
Cosmos 1709 Rocket 4.1 19:50:34 10° NNW 19:56:38 68° W 19:59:47 29° SSW
Meteor 1-5 Rocket 4.2 19:53:41 10° N 19:59:01 58° ENE 19:59:57 50° ESE
Cosmos 1328 Rocket 3.9 19:59:49 37° SW 20:01:24 62° W 20:05:48 10° N
BREEZE-M DEB (TANK) 4.4 19:57:05 10° WNW 20:01:42 81° SSW 20:06:54 30° ESE
NOSS 3-3 (A) 4.0 19:56:31 10° SW 20:02:10 75° NW 20:08:38 10° NNE
NOSS 3-3 (C) 4.0 19:56:37 10° SW 20:02:17 76° NW 20:08:44 10° NNE
Cosmos 1470 Rocket 3.4 19:57:54 10° N 20:02:24 81° E 20:02:47 73° SE
Cosmos 2074 Rocket 4.3 19:57:05 10° N 20:03:14 52° ENE 20:04:41 44° ESE
ATLAS 5 CENTAUR R/B 2.4 19:57:47 10° NW 20:03:36 76° WSW 20:05:41 45° SSE
CARTOSAT-1 3.6 20:07:01 64° SSW 20:07:28 71° WSW 20:11:48 10° NNW
ATLAS 2AS CENTAUR R/B 4.4 20:02:36 10° NNW 20:08:37 26° NE 20:13:07 14° E
Cosmos 1833 Rocket 2.8 20:07:26 10° NNW 20:13:02 60° ENE 20:14:00 52° ESE
Meteor 1-14 Rocket 4.4 20:08:40 10° NNW 20:14:32 72° W 20:16:14 46° SSW
Cosmos 1933 Rocket 3.5 20:12:36 10° N 20:16:40 71° NE 20:16:40 71° NE
Cosmos 1666 3.5 20:14:36 10° N 20:17:20 44° NNE 20:17:20 44° NNE
Cosmos 1538 Rocket 4.0 20:17:48 10° NNW 20:23:10 67° ENE 20:23:35 64° E
Iridium 4 Rocket 3.7 20:22:02 59° S 20:23:12 89° W 20:29:07 10° N
USA 305 4.5 20:24:09 10° NW 20:27:51 28° NNE 20:28:37 26° NE
Resurs 01 Rocket 4.3 20:30:33 10° WSW 20:32:13 12° W 20:33:53 10° WNW
BREEZE M DEB (TANK) 4.3 20:32:46 10° NW 20:34:07 18° NNW 20:34:07 18° NNW
Cosmos 158 Rocket 4.3 20:31:11 10° N 20:35:40 50° NE 20:35:40 50° NE
Meteor 1-27 Rocket 3.8 20:36:14 62° E 20:36:17 62° E 20:42:06 10° NNE
SJ 16-02 1.7 20:38:19 63° N 20:38:19 63° N 20:42:07 10° NNE
Cosmos 2228 Rocket 3.6 20:40:06 53° NNE 20:40:06 53° NNE 20:43:35 10° N
COSMOS 2406 3.1 20:37:43 10° NNW 20:43:24 78° WSW 20:43:43 75° SSW
Cosmos 2082 Rocket 2.4 20:40:44 10° NNW 20:46:16 57° ENE 20:46:28 56° ENE
USA 306 4.2 20:43:10 10° NW 20:47:01 34° NNE 20:47:01 34° NNE
CZ-4C R/B 3.0 20:41:48 10° NW 20:49:17 82° WSW 20:51:18 56° SSE
ERS-1 Rocket 3.9 20:50:52 37° WSW 20:51:16 38° W 20:55:57 10° NNW
SPOT 5 3.9 20:52:52 37° WSW 20:53:17 37° W 20:58:05 10° NNW
Cosmos 1271 Rocket 4.3 21:00:22 35° NW 21:00:22 35° NW 21:03:20 10° N
Cosmos 1295 Rocket 4.3 20:54:25 10° N 21:00:49 81° E 21:01:13 77° SE
Terra 2.7 21:02:23 40° W 21:02:23 40° W 21:06:35 10° NNW
Meteor 1-11 Rocket 3.8 20:56:28 10° NNW 21:02:27 76° W 21:02:44 74° SW
Cosmos 2278 Rocket 3.3 21:05:44 26° WSW 21:08:22 40° WNW 21:13:42 10° N
USA 307 4.3 21:08:23 10° NW 21:11:26 37° N 21:11:26 37° N
Cosmos 1340 Rocket 4.5 21:11:45 10° N 21:14:05 33° N 21:14:05 33° N
Cosmos 1898 Rocket 4.1 21:17:25 51° NE 21:17:25 51° NE 21:21:28 10° NNE
Cosmos 923 Rocket 4.2 21:10:59 10° NNW 21:15:32 67° N 21:15:32 67° N
Cosmos 2369 Rocket 4.0 21:21:42 19° ENE 21:21:42 19° ENE 21:23:51 10° NE
USA 308 4.5 21:21:48 10° NW 21:24:24 34° NNW 21:24:24 34° NNW
SL-8 Rocket 4.2 21:20:46 10° N 21:26:56 61° ENE 21:26:56 61° ENE
Cosmos 1943 Rocket 3.0 21:30:26 41° ENE 21:30:26 41° ENE 21:34:19 10° NNE
Cosmos 2154 Rocket 4.5 21:26:34 10° NNW 21:32:36 48° W 21:33:02 48° WSW
ALOS 2 4.1 21:38:42 33° NNE 21:38:42 33° NNE 21:41:24 10° N
Cosmos 44 4.2 21:37:41 10° NNW 21:42:24 49° NNE 21:42:24 49° NNE
NOSS 3-4 (A) 3.9 21:39:44 10° NW 21:46:51 67° WSW 21:47:02 67° SW
NOSS 3-4 (C) 3.9 21:39:51 10° NW 21:46:57 67° WSW 21:47:09 67° SW
Cosmos 864 Rocket 4.5 21:49:38 10° N 21:55:21 74° NNE 21:55:21 74° NNE
USA 215 3.9 21:55:03 34° E 21:57:38 51° NNE 22:03:54 10° NW
Cosmos 1238 Rocket 4.0 21:52:16 10° N 21:57:51 65° NW 21:57:51 65° NW
Cosmos 1959 Rocket 4.5 21:52:26 10° N 21:58:15 78° N 21:58:15 78° N
ATLAS 2AS CENTAUR R/B 2.6 21:53:14 10° NW 22:00:32 88° WSW 22:00:32 88° WSW
SeaSat 1 3.9 21:55:58 10° NE 21:58:33 29° NE 21:58:33 29° NE
Cosmos 2297 4.2 22:03:58 56° NW 22:03:58 56° NW 22:09:15 10° NNE
Cosmos 2181 Rocket 4.1 22:07:22 64° WNW 22:07:22 64° WNW 22:13:14 10° N
Cosmos 2366 rocket 4.3 22:18:38 10° NNW 22:24:07 57° WNW 22:24:07 57° WNW
Cosmos 1821 Rocket 4.2 22:20:04 10° N 22:26:15 64° ENE 22:26:15 64° ENE
Thor Agena Rocket 4.1 22:23:44 10° NNE 22:27:48 55° N 22:27:48 55° N
Cosmos 1818 4.2 22:23:31 10° NNW 22:27:40 53° NNW 22:27:40 53° NNW
Cosmos 2082 Rocket 4.1 22:25:55 10° NW 22:28:19 18° W 22:28:19 18° W
Resurs 1-4 Rocket 4.5 22:35:34 10° ENE 22:37:05 12° E 22:37:05 12° E
Gbstr 26 Del rocket 4.4 22:32:03 10° NW 22:38:49 56° NNE 22:40:00 48° ENE
Nadezhda 3 Rocket 4.1 23:02:11 67° WNW 23:02:11 67° WNW 23:08:06 10° N
Cosmos 2369 Rocket 2.8 23:03:27 47° NW 23:03:27 47° NW 23:08:34 10° NNE
Lacrosse 5 3.9 23:11:02 18° E 23:11:02 18° E 23:12:52 10° ENE
RESURS DK-1 4.3 23:07:55 10° NNW 23:09:53 27° NNW 23:09:53 27° NNW
Cosmos 1943 Rocket 3.9 23:11:55 22° WNW 23:12:55 23° NW 23:17:21 10° N
Cosmos 1867 4.0 23:18:56 58° NNW 23:18:56 58° NNW 23:23:50 10° NNE
Cosmos 1607 4.1 23:19:25 64° WNW 23:19:47 65° NW 23:26:16 10° NNE
Cosmos 1066 Rocket 4.5 23:26:45 62° NW 23:26:45 62° NW 23:31:58 10° N
Meteor 1-23 Rocket 4.3 23:28:21 79° NNW 23:28:21 79° NNW 23:33:51 10° N
Helios 1A 4.4 23:31:38 35° N 23:31:38 35° N 23:34:06 10° N
ATLAS CENTAUR R/B 3.3 23:33:01 24° NNE 23:33:01 24° NNE 23:34:43 10° NNE
Cosmos 1605 Rocket 4.0 23:25:27 10° N 23:31:41 72° E 23:32:11 69° ESE
Cosmos 1125 Rocket 4.2 23:35:51 47° NW 23:35:51 47° NW 23:40:20 10° N
Cosmos 1400 Rocket 4.5 23:33:24 10° N 23:36:19 33° NE 23:36:19 33° NE
SeaSat 1 4.0 23:33:59 10° N 23:37:59 25° NW 23:38:19 25° WNW
Okean 1 Rocket 4.4 23:34:39 10° N 23:38:20 34° ENE 23:38:20 34° ENE
USA 215 3.8 23:42:21 41° W 23:42:21 41° W 23:46:58 10° NW
USA 81 4.2 23:37:42 10° N 23:42:25 71° NNW 23:42:25 71° NNW
Cosmos 1674 Rocket 4.3 23:49:59 51° NNE 23:49:59 51° NNE 23:53:23 10° N
CZ-2D R/B 2.4 23:48:24 10° NNE 23:53:46 59° E 23:53:55 59° ESE
